Total_Precipitation_Accumulation
0.00 0.00 0.00 0.00 0.00 0.00 0.00 0.00 0.00 0.00 0.00 0.00 0.00 0.00 0.00 0.00 0.00 0.00 0.00 0.00 0.00 0.00 0.00 0.00 0.00 0.00 0.00 0.00 0.01 0.00 0.00 0.00 0.00 0.00 0.00 0.00 0.00 0.00 0.00 0.00 0.00 0.00 0.00 0.00 0.02
0.00 0.00 0.00 0.00 0.00 0.00 0.00 0.00 0.00 0.00 0.00 0.00 0.00 0.00 0.00 0.00 0.00 0.00 0.00 0.00 0.00 0.00 0.00 0.00 0.00 0.00 0.00 0.00 0.02 0.01 0.00 0.00 0.00 0.00 0.00 0.00 0.00 0.00 0.00 0.00 0.00 0.00 0.00 0.01 0.04
0.00 0.00 0.00 0.00 0.00 0.00 0.00 0.00 0.00 0.00 0.00 0.00 0.00 0.00 0.00 0.00 0.00 0.00 0.00 0.00 0.00 0.00 0.00 0.00 0.00 0.00 0.00 0.00 0.01 0.03 0.01 0.00 0.00 0.00 0.00 0.00 0.00 0.00 0.00 0.00 0.00 0.00 0.00 0.03 0.07
0.00 0.00 0.00 0.00 0.00 0.00 0.00 0.00 0.00 0.00 0.00 0.00 0.00 0.00 0.00 0.00 0.00 0.00 0.00 0.00 0.00 0.00 0.00 0.00 0.00 0.00 0.00 0.00 0.00 0.01 0.00 0.01 0.00 0.00 0.00 0.00 0.00 0.00 0.00 0.00 0.00 0.00 0.00 0.03 0.05
0.00 0.00 0.00 0.00 0.00 0.00 0.00 0.00 0.00 0.00 0.00 0.00 0.00 0.00 0.00 0.00 0.00 0.00 0.00 0.00 0.00 0.00 0.00 0.00 0.00 0.00 0.00 0.00 0.01 0.02 0.00 0.00 0.00 0.00 0.01 0.00 0.00 0.00 0.00 0.00 0.00 0.00 0.01 0.03 0.07
0.00 0.00 0.00 0.00 0.00 0.00 0.00 0.00 0.00 0.00 0.00 0.00 0.00 0.00 0.00 0.00 0.00 0.00 0.00 0.00 0.00 0.00 0.00 0.02 0.02 0.01 0.03 0.01 0.02 0.02 0.02 0.02 0.01 0.00 0.00 0.01 0.00 0.00 0.00 0.00 0.00 0.00 0.02 0.05 0.11
0.00 0.00 0.00 0.00 0.00 0.00 0.00 0.00 0.00 0.00 0.00 0.00 0.00 0.00 0.00 0.00 0.00 0.00 0.00 0.00 0.00 0.00 0.00 0.00 0.02 0.07 0.07 0.03 0.02 0.04 0.05 0.03 0.03 0.01 0.00 0.02 0.02 0.00 0.00 0.00 0.00 0.01 0.05 0.14 0.16
0.00 0.00 0.00 0.00 0.00 0.00 0.00 0.00 0.00 0.00 0.00 0.00 0.00 0.00 0.00 0.00 0.00 0.00 0.00 0.00 0.00 0.00 0.00 0.00 0.01 0.06 0.10 0.10 0.05 0.07 0.13 0.07 0.01 0.02 0.01 0.09 0.02 0.00 0.01 0.03 0.03 0.03 0.10 0.17 0.19
0.00 0.00 0.00 0.00 0.00 0.00 0.00 0.00 0.00 0.00 0.00 0.00 0.00 0.00 0.00 0.00 0.00 0.00 0.00 0.00 0.00 0.00 0.01 0.02 0.04 0.10 0.15 0.20 0.24 0.12 0.10 0.07 0.02 0.03 0.03 0.10 0.02 0.00 0.01 0.04 0.07 0.09 0.12 0.18 0.23
0.00 0.00 0.00 0.00 0.00 0.00 0.00 0.00 0.00 0.00 0.00 0.00 0.00 0.00 0.00 0.00 0.00 0.00 0.00 0.00 0.00 0.00 0.05 0.06 0.08 0.15 0.11 0.23 0.29 0.11 0.06 0.03 0.02 0.02 0.09 0.06 0.02 0.00 0.00 0.02 0.04 0.20 0.19 0.18 0.25
0.00 0.00 0.00 0.00 0.00 0.00 0.00 0.00 0.00 0.00 0.00 0.00 0.00 0.00 0.00 0.00 0.00 0.00 0.00 0.00 0.03 0.07 0.07 0.12 0.13 0.06 0.09 0.06 0.11 0.16 0.22 0.14 0.08 0.05 0.11 0.07 0.01 0.00 0.00 0.04 0.06 0.14 0.31 0.17 0.27
0.00 0.00 0.00 0.00 0.00 0.00 0.00 0.00 0.00 0.01 0.01 0.00 0.00 0.00 0.00 0.00 0.00 0.00 0.01 0.05 0.06 0.07 0.10 0.14 0.14 0.03 0.04 0.07 0.15 0.22 0.28 0.20 0.12 0.11 0.17 0.05 0.02 0.02 0.02 0.03 0.04 0.07 0.21 0.23 0.26
0.00 0.00 0.00 0.00 0.00 0.00 0.00 0.00 0.00 0.00 0.01 0.00 0.00 0.00 0.00 0.00 0.00 0.00 0.03 0.05 0.04 0.02 0.05 0.09 0.16 0.06 0.12 0.08 0.28 0.16 0.17 0.16 0.23 0.36 0.16 0.20 0.10 0.12 0.08 0.07 0.12 0.27 0.33 0.37 0.36
0.00 0.00 0.00 0.00 0.00 0.00 0.00 0.00 0.00 0.00 0.00 0.00 0.00 0.00 0.00 0.00 0.02 0.01 0.04 0.04 0.04 0.05 0.07 0.15 0.27 0.21 0.17 0.14 0.20 0.29 0.10 0.19 0.31 0.54 0.49 0.55 0.18 0.05 0.14 0.17 0.17 0.16 0.28 0.41 0.36
0.00 0.00 0.00 0.00 0.00 0.00 0.00 0.00 0.00 0.01 0.00 0.00 0.00 0.00 0.00 0.01 0.01 0.06 0.01 0.09 0.07 0.03 0.07 0.17 0.13 0.18 0.39 0.51 0.09 0.19 0.14 0.15 0.38 0.50 0.53 0.68 0.24 0.06 0.18 0.19 0.14 0.18 0.26 0.52 0.47
0.00 0.00 0.00 0.00 0.00 0.00 0.00 0.00 0.00 0.00 0.00 0.00 0.00 0.00 0.00 0.00 0.00 0.01 0.05 0.15 0.03 0.05 0.02 0.05 0.08 0.22 1.02 0.45 0.11 0.16 0.14 0.27 0.32 0.62 0.31 0.49 0.21 0.09 0.30 0.34 0.16 0.22 0.24 0.62 0.86
0.00 0.00 0.00 0.00 0.00 0.00 0.00 0.00 0.00 0.00 0.00 0.00 0.00 0.00 0.00 0.00 0.00 0.01 0.12 0.33 0.29 0.32 0.22 0.06 0.04 0.06 0.33 0.23 0.17 0.24 0.11 0.30 0.33 0.46 0.32 0.30 0.11 0.15 0.30 0.29 0.20 0.21 0.32 0.44 0.80
0.00 0.00 0.00 0.00 0.00 0.00 0.00 0.00 0.00 0.00 0.00 0.00 0.00 0.00 0.01 0.00 0.01 0.01 0.04 0.13 0.19 0.24 0.30 0.24 0.09 0.00 0.02 0.27 0.27 0.16 0.16 0.20 0.19 0.17 0.20 0.19 0.17 0.16 0.31 0.28 0.12 0.11 0.26 0.30 0.43
0.00 0.00 0.00 0.00 0.00 0.00 0.00 0.00 0.00 0.01 0.01 0.01 0.01 0.01 0.00 0.00 0.01 0.02 0.10 0.05 0.06 0.18 0.30 0.38 0.12 0.01 0.01 0.01 0.10 0.08 0.07 0.08 0.13 0.15 0.18 0.27 0.19 0.14 0.23 0.12 0.07 0.11 0.16 0.23 0.25
0.00 0.00 0.00 0.00 0.00 0.00 0.00 0.00 0.00 0.00 0.00 0.03 0.11 0.02 0.02 0.00 0.01 0.03 0.04 0.05 0.01 0.11 0.33 0.20 0.19 0.03 0.03 0.03 0.07 0.03 0.02 0.04 0.06 0.19 0.17 0.26 0.16 0.05 0.04 0.02 0.05 0.09 0.08 0.10 0.12
0.00 0.00 0.00 0.00 0.00 0.00 0.00 0.00 0.00 0.00 0.00 0.04 0.04 0.03 0.01 0.01 0.04 0.10 0.04 0.02 0.03 0.09 0.12 0.07 0.12 0.02 0.09 0.14 0.18 0.08 0.03 0.03 0.07 0.10 0.19 0.17 0.21 0.06 0.05 0.04 0.04 0.06 0.07 0.11 0.21
0.00 0.00 0.00 0.00 0.00 0.00 0.00 0.00 0.00 0.00 0.00 0.02 0.02 0.04 0.01 0.00 0.04 0.06 0.02 0.04 0.04 0.09 0.20 0.08 0.09 0.03 0.03 0.01 0.02 0.10 0.04 0.04 0.11 0.09 0.03 0.09 0.12 0.05 0.03 0.04 0.03 0.05 0.06 0.08 0.15
0.01 0.00 0.00 0.00 0.00 0.00 0.00 0.00 0.00 0.00 0.00 0.01 0.01 0.02 0.01 0.01 0.02 0.01 0.00 0.01 0.01 0.01 0.10 0.08 0.06 0.03 0.02 0.01 0.00 0.21 0.04 0.03 0.04 0.03 0.02 0.03 0.03 0.00 0.00 0.02 0.03 0.04 0.05 0.08 0.09
0.03 0.01 0.00 0.00 0.00 0.00 0.00 0.00 0.00 0.00 0.00 0.00 0.01 0.00 0.00 0.00 0.00 0.00 0.00 0.00 0.00 0.00 0.02 0.05 0.05 0.05 0.15 0.09 0.07 0.07 0.02 0.01 0.00 0.02 0.03 0.00 0.00 0.00 0.00 0.00 0.01 0.01 0.03 0.05 0.06
0.03 0.01 0.00 0.00 0.00 0.00 0.00 0.00 0.00 0.00 0.00 0.00 0.00 0.00 0.02 0.02 0.00 0.00 0.00 0.00 0.00 0.00 0.00 0.02 0.05 0.01 0.00 0.00 0.01 0.01 0.02 0.01 0.00 0.00 0.02 0.01 0.00 0.01 0.01 0.01 0.00 0.01 0.00 0.01 0.02
0.04 0.03 0.02 0.00 0.00 0.00 0.00 0.00 0.00 0.00 0.00 0.00 0.00 0.00 0.01 0.05 0.07 0.05 0.08 0.05 0.02 0.00 0.00 0.00 0.03 0.01 0.00 0.00 0.00 0.00 0.00 0.00 0.00 0.00 0.00 0.00 0.00 0.00 0.00 0.00 0.00 0.00 0.00 0.00 0.00
0.04 0.03 0.02 0.01 0.00 0.00 0.00 0.00 0.00 0.00 0.00 0.00 0.01 0.01 0.01 0.02 0.01 0.02 0.06 0.06 0.05 0.09 0.03 0.01 0.01 0.02 0.04 0.00 0.00 0.00 0.00 0.01 0.01 0.00 0.00 0.00 0.00 0.00 0.00 0.00 0.00 0.00 0.00 0.00 0.00